Location: Gipe Farm
(40.9466°N, 95.5370°W)
Time: 07:30:07
(UTC-05:00)

Cosmos 1842 - Visible Passes

Search period start: 30 May 2015 00:00
Search period end: 09 June 2015 00:00
Orbit: 532 x 545 km, 82.5° (Epoch: 30 May)

Date Brightness Start Highest point End Pass type
(mag) Time Alt. Az. Time Alt. Az. Time Alt. Az.
30 May 5.4 21:34:15 10° E 21:34:58 11° E 21:35:57 10° ENE visible
30 May 4.0 23:08:59 28° SW 23:10:45 51° W 23:14:39 10° N visible
31 May 5.4 21:26:25 10° E 21:27:09 11° E 21:28:08 10° ENE visible
31 May 4.0 23:00:41 23° SSW 23:02:56 51° W 23:06:48 10° N visible
01 Jun 4.0 22:52:19 18° SSW 22:55:05 51° W 22:58:58 10° N visible
02 Jun 4.0 22:43:53 13° SSW 22:47:15 51° W 22:51:08 10° N visible
03 Jun 4.1 22:35:33 10° SSW 22:39:24 51° W 22:43:18 10° N visible
04 Jun 4.1 22:27:42 10° SSW 22:31:33 51° W 22:35:28 10° N visible
05 Jun 4.1 22:19:51 10° SSW 22:23:43 51° W 22:27:36 10° N visible
06 Jun 4.1 22:12:00 10° SSW 22:15:51 51° W 22:19:46 10° N visible
07 Jun 4.1 22:04:08 10° SSW 22:08:00 52° W 22:11:54 10° N visible
08 Jun 4.2 21:56:17 10° SSW 22:00:09 52° W 22:04:03 10° N visible
